• en Suisse
  • Liste des pays
  • À 7 jours
  • Température de l'eau
  • Carte satellitaire
  • Carte météo
  • Widgets météo
  • user-avatar
    Se connecter

    Météo par heure à Shishlovo

    Ce jour, 21 Octobre, Dimanche

    Heure Température Précipitation Vent Pression Humidité
    00:00 +5°C° 0 mm 1 m/s 762 mmHg 93%
    01:00 +5°C° 0 mm 1 m/s 762 mmHg 93%
    02:00 +5°C° 0 mm 1 m/s 762 mmHg 94%
    03:00 +5°C° 0 mm 1 m/s 762 mmHg 94%
    04:00 +4°C° 0 mm 1 m/s 762 mmHg 94%
    05:00 +4°C° 0 mm 1 m/s 762 mmHg 95%
    06:00 +4°C° 0 mm 1 m/s 763 mmHg 94%
    07:00 +4°C° 0 mm 1 m/s 763 mmHg 94%
    08:00 +4°C° 0 mm 1 m/s 763 mmHg 93%
    09:00 +6°C° 0 mm 1 m/s 763 mmHg 87%
    10:00 +7°C° 0 mm 1 m/s 763 mmHg 80%
    11:00 +9°C° 0 mm 1 m/s 763 mmHg 74%
    12:00 +9°C° 0 mm 1 m/s 763 mmHg 71%
    13:00 +9°C° 0 mm 2 m/s 763 mmHg 69%
    14:00 +9°C° 0 mm 2 m/s 763 mmHg 67%
    15:00 +8°C° 0 mm 2 m/s 763 mmHg 73%
    16:00 +7°C° 0 mm 2 m/s 763 mmHg 78%
    17:00 +6°C° 0 mm 2 m/s 763 mmHg 84%
    18:00 +6°C° 0 mm 2 m/s 763 mmHg 86%
    19:00 +5°C° 0 mm 2 m/s 763 mmHg 88%
    20:00 +5°C° 0 mm 2 m/s 762 mmHg 90%
    21:00 +4°C° 0 mm 3 m/s 762 mmHg 90%
    22:00 +4°C° 0 mm 3 m/s 762 mmHg 90%
    23:00 +4°C° 0 mm 3 m/s 761 mmHg 90%

    Demain, 22 Octobre, Lundi

    Heure Température Précipitation Vent Pression Humidité
    00:00 +4°C° 0 mm 4 m/s 761 mmHg 90%
    01:00 +4°C° 0 mm 4 m/s 761 mmHg 91%
    02:00 +4°C° 0 mm 4 m/s 760 mmHg 91%
    03:00 +4°C° 0 mm 4 m/s 760 mmHg 91%
    04:00 +3°C° 0 mm 5 m/s 759 mmHg 91%
    05:00 +3°C° 0 mm 5 m/s 759 mmHg 91%
    06:00 +5°C° 0 mm 5 m/s 758 mmHg 90%
    07:00 +5°C° 0 mm 5 m/s 758 mmHg 89%
    08:00 +6°C° 0 mm 5 m/s 757 mmHg 88%
    09:00 +5°C° 0 mm 6 m/s 757 mmHg 86%
    10:00 +7°C° 0 mm 6 m/s 756 mmHg 84%
    11:00 +7°C° 0 mm 6 m/s 756 mmHg 81%
    12:00 +8°C° 0.2 mm 6 m/s 755 mmHg 82%
    13:00 +8°C° 0.2 mm 6 m/s 755 mmHg 82%
    14:00 +8°C° 0.2 mm 6 m/s 754 mmHg 82%
    15:00 +8°C° 0.6 mm 5 m/s 754 mmHg 84%
    16:00 +8°C° 0.6 mm 5 m/s 754 mmHg 86%
    17:00 +8°C° 0.6 mm 5 m/s 754 mmHg 88%
    18:00 +8°C° 0.2 mm 4 m/s 753 mmHg 88%
    19:00 +8°C° 0.2 mm 4 m/s 753 mmHg 88%
    20:00 +7°C° 0.2 mm 4 m/s 753 mmHg 87%
    21:00 +7°C° 0 mm 4 m/s 754 mmHg 85%
    22:00 +7°C° 0 mm 3 m/s 754 mmHg 82%
    23:00 +5°C° 0 mm 3 m/s 754 mmHg 80%

    Après-demain, 23 Octobre, Mardi

    Heure Température Précipitation Vent Pression Humidité
    00:00 +4°C° 0 mm 3 m/s 754 mmHg 81%
    01:00 +3°C° 0 mm 3 m/s 754 mmHg 83%
    02:00 +3°C° 0 mm 3 m/s 754 mmHg 84%
    03:00 +3°C° 0 mm 2 m/s 753 mmHg 86%
    04:00 +3°C° 0 mm 2 m/s 753 mmHg 87%
    05:00 +3°C° 0 mm 2 m/s 753 mmHg 89%
    06:00 +3°C° 0 mm 2 m/s 752 mmHg 89%
    07:00 +3°C° 0 mm 2 m/s 752 mmHg 88%
    08:00 +2°C° 0 mm 3 m/s 751 mmHg 88%
    09:00 +3°C° 0 mm 3 m/s 751 mmHg 84%
    10:00 +4°C° 0 mm 3 m/s 750 mmHg 79%
    11:00 +5°C° 0 mm 4 m/s 749 mmHg 75%
    12:00 +5°C° 0 mm 4 m/s 748 mmHg 72%
    13:00 +6°C° 0 mm 5 m/s 746 mmHg 70%
    14:00 +6°C° 0 mm 5 m/s 745 mmHg 67%
    15:00 +5°C° 0.1 mm 5 m/s 744 mmHg 70%
    16:00 +4°C° 0.1 mm 6 m/s 742 mmHg 72%
    17:00 +3°C° 0.1 mm 6 m/s 741 mmHg 75%
    18:00 +3°C° 0.9 mm 6 m/s 739 mmHg 77%
    19:00 +3°C° 0.9 mm 6 m/s 738 mmHg 78%
    20:00 +3°C° 0.9 mm 6 m/s 736 mmHg 80%
    21:00 +3°C° 0.9 mm 6 m/s 735 mmHg 82%
    22:00 +3°C° 0.9 mm 6 m/s 734 mmHg 83%
    23:00 +3°C° 0.9 mm 5 m/s 733 mmHg 85%

    24 Octobre, Mercredi

    Heure Température Précipitation Vent Pression Humidité
    00:00 +3°C° 0.7 mm 5 m/s 732 mmHg 86%
    01:00 +4°C° 0.7 mm 4 m/s 731 mmHg 88%
    02:00 +4°C° 0.7 mm 4 m/s 731 mmHg 89%
    03:00 +4°C° 0.3 mm 3 m/s 730 mmHg 90%
    04:00 +4°C° 0.3 mm 3 m/s 730 mmHg 91%
    05:00 +5°C° 0.3 mm 2 m/s 729 mmHg 92%
    06:00 +5°C° 0.1 mm 2 m/s 729 mmHg 92%
    07:00 +5°C° 0.1 mm 2 m/s 729 mmHg 92%
    08:00 +5°C° 0.1 mm 2 m/s 729 mmHg 92%
    09:00 +6°C° 0.1 mm 2 m/s 729 mmHg 90%
    10:00 +6°C° 0.1 mm 2 m/s 729 mmHg 88%
    11:00 +7°C° 0.1 mm 1 m/s 730 mmHg 87%
    12:00 +7°C° 0.1 mm 1 m/s 730 mmHg 86%
    13:00 +8°C° 0.1 mm 1 m/s 730 mmHg 85%
    14:00 +8°C° 0.1 mm 1 m/s 730 mmHg 84%
    15:00 +6°C° 0.2 mm 2 m/s 731 mmHg 86%
    16:00 +6°C° 0.2 mm 2 m/s 731 mmHg 88%
    17:00 +6°C° 0.2 mm 2 m/s 732 mmHg 90%
    18:00 +5°C° 0.2 mm 3 m/s 732 mmHg 90%
    19:00 +5°C° 0.2 mm 3 m/s 733 mmHg 90%
    20:00 +4°C° 0.2 mm 4 m/s 733 mmHg 90%
    21:00 +4°C° 0.2 mm 4 m/s 734 mmHg 89%
    22:00 +4°C° 0.2 mm 4 m/s 734 mmHg 87%
    23:00 +3°C° 0.2 mm 5 m/s 734 mmHg 86%

    25 Octobre, Jeudi

    Heure Température Précipitation Vent Pression Humidité
    00:00 +3°C° 0.2 mm 5 m/s 735 mmHg 86%
    01:00 +3°C° 0.2 mm 5 m/s 735 mmHg 85%
    02:00 +3°C° 0.2 mm 5 m/s 736 mmHg 85%
    03:00 +3°C° 0.2 mm 5 m/s 736 mmHg 84%
    04:00 +3°C° 0.2 mm 6 m/s 736 mmHg 83%
    05:00 +3°C° 0.2 mm 6 m/s 736 mmHg 82%
    06:00 +3°C° 0.2 mm 6 m/s 737 mmHg 81%
    07:00 +3°C° 0.2 mm 6 m/s 737 mmHg 81%
    08:00 +3°C° 0.2 mm 6 m/s 737 mmHg 80%
    09:00 +3°C° 0.1 mm 6 m/s 737 mmHg 79%
    10:00 +3°C° 0.1 mm 6 m/s 737 mmHg 77%
    11:00 +3°C° 0.1 mm 6 m/s 738 mmHg 75%
    12:00 +5°C° 0.1 mm 5 m/s 738 mmHg 74%
    13:00 +5°C° 0.1 mm 5 m/s 738 mmHg 72%
    14:00 +5°C° 0.1 mm 4 m/s 738 mmHg 71%
    15:00 +4°C° 0 mm 4 m/s 738 mmHg 75%
    16:00 +3°C° 0 mm 3 m/s 738 mmHg 80%
    17:00 +4°C° 0 mm 2 m/s 738 mmHg 85%
    18:00 +3°C° 0 mm 2 m/s 738 mmHg 87%
    19:00 +3°C° 0 mm 2 m/s 738 mmHg 89%
    20:00 +3°C° 0 mm 1 m/s 738 mmHg 91%
    21:00 +3°C° 0 mm 1 m/s 738 mmHg 91%
    22:00 +3°C° 0 mm 1 m/s 738 mmHg 92%
    23:00 +3°C° 0 mm 1 m/s 738 mmHg 93%

    26 Octobre, Vendredi

    Heure Température Précipitation Vent Pression Humidité
    00:00 +3°C° 0 mm 1 m/s 738 mmHg 93%
    01:00 +3°C° 0 mm 1 m/s 738 mmHg 94%
    02:00 +3°C° 0 mm 1 m/s 738 mmHg 94%
    03:00 +2°C° 0 mm 1 m/s 738 mmHg 94%
    04:00 +2°C° 0 mm 1 m/s 738 mmHg 95%
    05:00 +2°C° 0 mm 1 m/s 739 mmHg 95%
    06:00 +2°C° 0 mm 1 m/s 739 mmHg 95%
    07:00 +2°C° 0 mm 1 m/s 739 mmHg 95%
    08:00 +2°C° 0 mm 1 m/s 739 mmHg 95%
    09:00 +3°C° 0 mm 2 m/s 740 mmHg 90%
    10:00 +4°C° 0 mm 2 m/s 740 mmHg 85%
    11:00 +5°C° 0 mm 2 m/s 740 mmHg 79%
    12:00 +4°C° 0.1 mm 3 m/s 740 mmHg 77%
    13:00 +4°C° 0.1 mm 3 m/s 741 mmHg 75%
    14:00 +5°C° 0.1 mm 3 m/s 741 mmHg 73%
    15:00 +4°C° 0 mm 3 m/s 741 mmHg 77%
    16:00 +3°C° 0 mm 3 m/s 741 mmHg 81%
    17:00 +3°C° 0 mm 2 m/s 742 mmHg 85%
    18:00 +2°C° 0 mm 2 m/s 742 mmHg 86%
    19:00 +2°C° 0 mm 2 m/s 742 mmHg 88%
    20:00 +2°C° 0 mm 2 m/s 742 mmHg 90%
    21:00 +1°C° 0 mm 2 m/s 743 mmHg 91%
    22:00 +1°C° 0 mm 2 m/s 743 mmHg 92%
    23:00 +1°C° 0 mm 2 m/s 743 mmHg 93%
    Voir plus